{"data":{"norad_id":58226,"intl_designator":"2023-170W","name":"STARLINK-30865","alt_names":[],"object_type":"PAYLOAD","status":"ACTIVE","operator":null,"country":"US","launch_date":"2023-11-03","launch_site_code":"AFETR","launch_vehicle":null,"mission":null,"orbit_class":"UNKNOWN","rcs_meters":null,"size_class":null,"mass_kg":null,"dimensions":null,"purposes":["comms"],"wikipedia_slug":null,"has_3d_model":false,"image_url":null,"decayed_at":null,"tle_current":{"epoch":"2026-05-25T04:57:44.216064Z","epoch_age_seconds":67746,"freshness":"FRESH","line1":"1 58226U 23170W   26145.20676176 -.00001322  00000+0 -38585-4 0  9991","line2":"2 58226  43.0032 110.8817 0000672 238.6218 121.4568 15.27552768142134","mean_motion":15.27552768,"eccentricity":6.72e-5,"inclination_deg":43.0032,"raan_deg":110.8817,"arg_perigee_deg":238.6218,"mean_anomaly_deg":121.4568,"bstar":-3.8585e-5,"rev_number":14213,"period_min":94.268429226531,"perigee_km":482.66956247032,"apogee_km":483.59171684109,"semimajor_km":6861.2676396557,"source":"CELESTRAK","updated_at":"2026-05-25T13:38:18.578360Z"}}}